Home > Weather > Clearwater > Past weeks

Flag for U.S.A. Weather for the Past 2 Weeks in Clearwater, Florida, U.S.A.

Now
61 °F

Clear.


Feels Like: 61 °F
Forecast: 52 / 62 °F
Wind: 8 mph from Northwest

Location: St. Petersburg / Clearwater International Airport

Current Time: Feb 13, 2016 at 4:27:48 AM

Latest Report: Feb 13, 2016 at 3:53 AM


Visibility: 10 mi

Pressure: 30.17 "Hg

Humidity: 87%

Dew point: 57 °F

Location of ClearwaterLocation

Historic Weather in Clearwater — Graph

°F

Clearwater Temperature Yesterday

Maximum temperature yesterday: 70 °F (at 12:53 PM)
Minimum temperature yesterday: 48 °F (at 4:53 AM)
Average temperature yesterday: 59 °F

High & Low Weather Summary for the Past Weeks

 TemperatureHumidityPressure
High84 °F (Feb 3, 12:53 PM)100% (Feb 2, 5:53 AM)30.35 "Hg (Feb 2, 5:53 AM)
Low41 °F (Feb 8, 4:53 AM)28% (Feb 5, 2:53 PM)29.90 "Hg (Feb 8, 9:53 PM)
Average60 °F71%30.12 "Hg
* Reported Jan 29 2:53 AM — Feb 13 2:53 AM, Clearwater, Weather by CustomWeather, © 2016

Note: Actual official high and low records may vary slightly from our data, if they occured in-between our weather recording intervals... More about our weather records

Advertising

Clearwater Weather History for the Previous 24 Hours

 ConditionsComfort  
Time TempWeatherWind HumidityBarometerVisibility
2:53 AM
Sat, Feb 13
61 °FPassing clouds.8 mph87%30.19 "Hg10 mi
1:53 AM60 °FPassing clouds.6 mph90%30.20 "Hg10 mi
12:53 AM58 °FClear.5 mph93%30.21 "Hg10 mi
11:53 PM
Fri, Feb 12
55 °FClear.5 mph93%30.21 "Hg10 mi
10:53 PM56 °FClear.5 mph93%30.22 "Hg10 mi
9:53 PM58 °FClear.6 mph90%30.22 "Hg10 mi
8:53 PM59 °FClear.6 mph84%30.23 "Hg10 mi
7:53 PM60 °FClear.9 mph80%30.22 "Hg10 mi
6:53 PM61 °FClear.9 mph78%30.21 "Hg10 mi
5:53 PM65 °FSunny.10 mph68%30.22 "Hg10 mi
3:53 PM69 °FSunny.13 mph59%30.22 "Hg10 mi
2:53 PM70 °FSunny.14 mph55%30.23 "Hg10 mi
1:53 PM70 °FSunny.15 mph55%30.24 "Hg10 mi
12:53 PM70 °FSunny.16 mph55%30.28 "Hg10 mi
11:53 AM69 °FSunny.14 mph57%30.30 "Hg10 mi
10:53 AM68 °FSunny.10 mph61%30.32 "Hg10 mi
9:53 AM65 °FSunny.8 mph68%30.31 "Hg10 mi
8:53 AM60 °FSunny.7 mph83%30.29 "Hg10 mi
7:53 AM53 °FSunny.7 mph96%30.29 "Hg10 mi
6:53 AM50 °FClear.8 mph93%30.29 "Hg10 mi
5:53 AM50 °FClear.6 mph93%30.27 "Hg8 mi
4:53 AM48 °FPassing clouds.6 mph96%30.26 "Hg8 mi
Weather by CustomWeather, © 2016

See weather overviewHow to use our weather pages